When you browse on this site, cookies collect data to enhance your experience and personalize the content and advertising you see.
Visit our Privacy Policy to learn more. By continuing to use the site, you agree to this use of cookies and data.

Hourly Weather Borogoncy

Today, 25 September, Friday

Time Temperature Precipitation Wind Pressure Humidity
00:00 +5°C° 0 mm 2 mps 758 mmHg 76%
01:00 +5°C° 0 mm 2 mps 759 mmHg 76%
02:00 +4°C° 0 mm 2 mps 759 mmHg 77%
03:00 +4°C° 0 mm 2 mps 759 mmHg 78%
04:00 +4°C° 0 mm 2 mps 759 mmHg 79%
05:00 +4°C° 0 mm 2 mps 759 mmHg 80%
06:00 +3°C° 0 mm 2 mps 759 mmHg 81%
07:00 +4°C° 0 mm 3 mps 759 mmHg 74%
08:00 +7°C° 0 mm 3 mps 759 mmHg 67%
09:00 +9°C° 0 mm 3 mps 759 mmHg 59%
10:00 +11°C° 0 mm 4 mps 759 mmHg 52%
11:00 +12°C° 0 mm 4 mps 759 mmHg 46%
12:00 +14°C° 0 mm 4 mps 758 mmHg 39%
13:00 +14°C° 0 mm 5 mps 758 mmHg 37%
14:00 +14°C° 0 mm 5 mps 758 mmHg 36%
15:00 +15°C° 0 mm 5 mps 757 mmHg 33%
16:00 +13°C° 0 mm 4 mps 757 mmHg 38%
17:00 +12°C° 0 mm 4 mps 757 mmHg 43%
18:00 +10°C° 0 mm 3 mps 757 mmHg 48%
19:00 +10°C° 0 mm 3 mps 757 mmHg 51%
20:00 +8°C° 0 mm 4 mps 757 mmHg 53%
21:00 +7°C° 0 mm 4 mps 757 mmHg 56%
22:00 +7°C° 0 mm 4 mps 756 mmHg 57%
23:00 +6°C° 0 mm 4 mps 756 mmHg 57%

Tomorrow, 26 September, Saturday

Time Temperature Precipitation Wind Pressure Humidity
00:00 +6°C° 0 mm 4 mps 756 mmHg 58%
01:00 +6°C° 0 mm 4 mps 755 mmHg 59%
02:00 +5°C° 0 mm 4 mps 755 mmHg 60%
03:00 +5°C° 0 mm 4 mps 755 mmHg 60%
04:00 +5°C° 0 mm 4 mps 754 mmHg 60%
05:00 +5°C° 0 mm 4 mps 754 mmHg 59%
06:00 +5°C° 0 mm 4 mps 753 mmHg 59%
07:00 +6°C° 0 mm 4 mps 753 mmHg 57%
08:00 +6°C° 0 mm 4 mps 752 mmHg 55%
09:00 +7°C° 0 mm 4 mps 752 mmHg 53%
10:00 +8°C° 0 mm 4 mps 752 mmHg 52%
11:00 +10°C° 0 mm 4 mps 751 mmHg 52%
12:00 +11°C° 0 mm 4 mps 751 mmHg 52%
13:00 +12°C° 0 mm 4 mps 750 mmHg 52%
14:00 +13°C° 0 mm 4 mps 750 mmHg 52%
15:00 +14°C° 0 mm 4 mps 750 mmHg 51%
16:00 +13°C° 0 mm 4 mps 750 mmHg 55%
17:00 +12°C° 0 mm 3 mps 749 mmHg 59%
18:00 +11°C° 0 mm 3 mps 749 mmHg 63%
19:00 +10°C° 0 mm 3 mps 749 mmHg 64%
20:00 +10°C° 0 mm 4 mps 748 mmHg 65%
21:00 +10°C° 0 mm 4 mps 748 mmHg 66%
22:00 +10°C° 0 mm 4 mps 747 mmHg 67%
23:00 +10°C° 0 mm 4 mps 746 mmHg 67%

Day after tomorrow, 27 September, Sunday

Time Temperature Precipitation Wind Pressure Humidity
00:00 +8°C° 0 mm 4 mps 746 mmHg 68%
01:00 +10°C° 0 mm 4 mps 745 mmHg 68%
02:00 +9°C° 0 mm 5 mps 745 mmHg 67%
03:00 +9°C° 0 mm 5 mps 744 mmHg 67%
04:00 +9°C° 0 mm 5 mps 743 mmHg 67%
05:00 +9°C° 0 mm 5 mps 743 mmHg 67%
06:00 +9°C° 0 mm 5 mps 742 mmHg 67%
07:00 +9°C° 0 mm 5 mps 741 mmHg 67%
08:00 +10°C° 0 mm 4 mps 741 mmHg 67%
09:00 +10°C° 0 mm 4 mps 740 mmHg 68%
10:00 +10°C° 0.1 mm 4 mps 740 mmHg 69%
11:00 +11°C° 0.1 mm 4 mps 740 mmHg 70%
12:00 +11°C° 0.1 mm 3 mps 739 mmHg 72%
13:00 +12°C° 0 mm 4 mps 738 mmHg 69%
14:00 +13°C° 0 mm 4 mps 738 mmHg 66%
15:00 +13°C° 0 mm 4 mps 737 mmHg 64%
16:00 +13°C° 0 mm 4 mps 737 mmHg 65%
17:00 +13°C° 0 mm 4 mps 737 mmHg 66%
18:00 +13°C° 0 mm 4 mps 737 mmHg 68%
19:00 +13°C° 0.5 mm 4 mps 736 mmHg 74%
20:00 +12°C° 0.5 mm 4 mps 736 mmHg 81%
21:00 +12°C° 0.5 mm 4 mps 736 mmHg 87%
22:00 +11°C° 0.4 mm 3 mps 735 mmHg 89%
23:00 +11°C° 0.4 mm 3 mps 735 mmHg 91%

28 September, Monday

Time Temperature Precipitation Wind Pressure Humidity
00:00 +10°C° 0.4 mm 3 mps 734 mmHg 94%
01:00 +10°C° 0.3 mm 3 mps 734 mmHg 90%
02:00 +10°C° 0.3 mm 3 mps 734 mmHg 87%
03:00 +10°C° 0.3 mm 3 mps 734 mmHg 83%
04:00 +9°C° 0 mm 3 mps 735 mmHg 85%
05:00 +8°C° 0 mm 3 mps 735 mmHg 87%
06:00 +7°C° 0 mm 3 mps 735 mmHg 88%
07:00 +7°C° 0.1 mm 3 mps 736 mmHg 88%
08:00 +8°C° 0.1 mm 2 mps 736 mmHg 88%
09:00 +8°C° 0.1 mm 2 mps 736 mmHg 88%
10:00 +8°C° 0.5 mm 2 mps 737 mmHg 88%
11:00 +8°C° 0.5 mm 2 mps 737 mmHg 88%
12:00 +8°C° 0.5 mm 3 mps 737 mmHg 88%
13:00 +8°C° 0 mm 2 mps 738 mmHg 82%
14:00 +9°C° 0 mm 2 mps 738 mmHg 75%
15:00 +10°C° 0 mm 2 mps 738 mmHg 69%
16:00 +9°C° 0 mm 2 mps 739 mmHg 72%
17:00 +8°C° 0 mm 2 mps 739 mmHg 75%
18:00 +8°C° 0 mm 1 mps 740 mmHg 79%
19:00 +7°C° 0 mm 1 mps 740 mmHg 81%
20:00 +6°C° 0 mm 1 mps 741 mmHg 83%
21:00 +5°C° 0 mm 2 mps 741 mmHg 84%
22:00 +4°C° 0 mm 2 mps 741 mmHg 87%
23:00 +4°C° 0 mm 2 mps 741 mmHg 89%

29 September, Tuesday

Time Temperature Precipitation Wind Pressure Humidity
00:00 +4°C° 0 mm 2 mps 741 mmHg 91%
01:00 +4°C° 0 mm 1 mps 742 mmHg 93%
02:00 +3°C° 0 mm 1 mps 742 mmHg 94%
03:00 +3°C° 0 mm 1 mps 742 mmHg 96%
04:00 +3°C° 0 mm 1 mps 742 mmHg 96%
05:00 +2°C° 0 mm 1 mps 743 mmHg 96%
06:00 +2°C° 0 mm 1 mps 743 mmHg 97%
07:00 +3°C° 0 mm 1 mps 743 mmHg 93%
08:00 +4°C° 0 mm 1 mps 743 mmHg 89%
09:00 +5°C° 0 mm 1 mps 743 mmHg 84%
10:00 +7°C° 0 mm 1 mps 743 mmHg 78%
11:00 +7°C° 0 mm 2 mps 743 mmHg 72%
12:00 +8°C° 0 mm 2 mps 743 mmHg 66%
13:00 +8°C° 0 mm 2 mps 743 mmHg 65%
14:00 +8°C° 0 mm 2 mps 743 mmHg 65%
15:00 +8°C° 0 mm 2 mps 743 mmHg 64%
16:00 +7°C° 0 mm 2 mps 744 mmHg 67%
17:00 +6°C° 0 mm 2 mps 744 mmHg 71%
18:00 +5°C° 0 mm 2 mps 744 mmHg 74%
19:00 +4°C° 0 mm 2 mps 744 mmHg 77%
20:00 +4°C° 0 mm 2 mps 744 mmHg 79%
21:00 +3°C° 0 mm 2 mps 744 mmHg 81%
22:00 +3°C° 0 mm 2 mps 744 mmHg 85%
23:00 +3°C° 0 mm 2 mps 744 mmHg 88%

30 September, Wednesday

Time Temperature Precipitation Wind Pressure Humidity
00:00 +3°C° 0 mm 2 mps 744 mmHg 91%
01:00 +4°C° 0 mm 2 mps 744 mmHg 91%
02:00 +4°C° 0 mm 2 mps 745 mmHg 91%
03:00 +5°C° 0 mm 2 mps 745 mmHg 91%
04:00 +5°C° 0 mm 2 mps 745 mmHg 91%
05:00 +5°C° 0 mm 2 mps 745 mmHg 92%
06:00 +5°C° 0 mm 2 mps 746 mmHg 92%
07:00 +5°C° 0.1 mm 2 mps 746 mmHg 90%
08:00 +6°C° 0.1 mm 2 mps 746 mmHg 89%
09:00 +6°C° 0.1 mm 2 mps 747 mmHg 87%
10:00 +6°C° 0.1 mm 2 mps 747 mmHg 83%
11:00 +6°C° 0.1 mm 2 mps 747 mmHg 79%
12:00 +6°C° 0.1 mm 2 mps 748 mmHg 75%
13:00 +6°C° 0 mm 2 mps 748 mmHg 69%
14:00 +6°C° 0 mm 2 mps 748 mmHg 63%
15:00 +7°C° 0 mm 2 mps 749 mmHg 57%
16:00 +6°C° 0 mm 2 mps 749 mmHg 61%
17:00 +4°C° 0 mm 2 mps 749 mmHg 65%
18:00 +4°C° 0 mm 1 mps 750 mmHg 69%
19:00 +4°C° 0 mm 1 mps 750 mmHg 72%
20:00 +3°C° 0 mm 1 mps 750 mmHg 74%
21:00 +2°C° 0 mm 0 mps 751 mmHg 77%
22:00 +1°C° 0 mm 0 mps 751 mmHg 78%
23:00 +1°C° 0 mm 0 mps 751 mmHg 80%
Show more